Location: Aytr�
(46.1357°N, 1.1145°W)
Time: 23:47:14
(UTC+00:00)

Nauka - Pass Details

Date: 21 September 2021
Orbit: 418 x 423 km, 51.6° (Epoch: 14 October)

Event Time Altitude Azimuth Distance (km) Brightness Sun altitude
Rises 21:12:17 0° 288° (WNW) 2,366 ? -31.1°
Reaches altitude 10° 21:14:32 10° 299° (WNW) 1,503 ? -31.4°
Enters shadow 21:14:50 12° 302° (WNW) 1,395 ? -31.4°
